Orbital Elements at Epoch 2459200.5 (2020-Dec-17.0) TDB
Reference: JPL 23 (heliocentric ecliptic J2000)
Element | Value | Uncertainty (1-sigma) | Units |
e | .1116669973558572 | 3.4004e-08 | |
a | 2.631658637186485 | 1.1463e-08 | au |
q | 2.337789219106263 | 8.663e-08 | au |
i | 6.693935064179318 | 4.3824e-06 | deg |
node | 216.5623299650094 | 3.0169e-05 | deg |
peri | 79.09263893672895 | 3.6885e-05 | deg |
M | 164.4732409748242 | 2.2646e-05 | deg |
tp | 2458488.080975671456 (2019-Jan-04.58097567) | 9.6759e-05 | TDB |
period | 1559.346962692451 4.27 | 1.0188e-05 2.789e-08 | d yr |
n | .2308658743775695 | 1.5084e-09 | deg/d |
Q | 2.925528055266708 | 1.2743e-08 | au |
|
| | Orbit Determination Parameters
Additional Information
|